Location: Ch�teau-Arnoux
(44.0814°N, 6.0027°E)
Time: 12:47:25
(UTC+00:00)

SMAP - Pass Details

Date: 15 November 2019
Orbit: 682 x 683 km, 98.1° (Epoch: 08 December)

Event Time Altitude Azimuth Distance (km) Brightness Sun altitude
Rises 05:29:54 0° 19° (NNE) 3,055 6.5 -11.1°
Reaches altitude 10° 05:32:15 10° 26° (NNE) 2,134 5.8 -10.6°
Maximum altitude 05:36:43 44° 99° (E) 938 4.4 -9.9°
Drops below altitude 10° 05:41:09 10° 172° (S) 2,118 5.9 -9.1°
Sets 05:43:28 0° 178° (S) 3,028 6.7 -8.7°
